x

8454049 - Quonset Point, Ri (qptr1) Weather Station

9:30 - Fri 12th Feb 2016 All times are EST. -5 hours from GMT.

  • Wind
    7mph, 9mph gusts
  • Sea Temp 36°f
  • Sea Pressure 1014.3mb
  • 8454049 - Quonset Point, Ri
  • 8454049 - Quonset Point, Ri

More Historic Weather Station data

Upgrade to MSW Pro to gain access to the past 30 days of data for over 8000 Wavebouys and Weather Stations around the globe.

Join Pro

Comparision Forecast

View Surf forecast
   
ven. 02/12 9:30 7 9 mph 1014.3mb 36f -
9:24 7 9 mph 1014.3mb 36f -
9:18  -  mph 1014.3mb 36f 23f
9:12  -  mph 1014.3mb 36f 24f
9:06  -  mph 1014.4mb 36f 23f
9:00  -  mph 1014.5mb 37f 23f
8:54  -  mph 1014.6mb 37f 23f
8:48 5 6 mph 1014.7mb 37f 23f
8:42 6 7 mph 1014.9mb 37f 23f
8:36 3 7 mph 1015mb 37f 23f
8:30 3 5 mph 1015.2mb 37f 23f
8:24 5 7 mph 1015.2mb 37f 23f
8:18 5 6 mph 1015.3mb 37f 23f
8:12 5 6 mph 1015.5mb 37f 23f
8:06 5 9 mph 1015.6mb 37f 23f
8:00  -  mph 1015.7mb 37f 24f
7:54  -  mph 1015.8mb 37f 23f
7:48 6 8 mph 1015.9mb 37f 23f
7:42 6 10 mph 1016mb 37f 24f
7:36 10 13 mph 1016.2mb 37f 23f
7:30  -  mph 1016.3mb 37f 24f
7:24  -  mph 1016.4mb 37f 24f
7:18  -  mph 1016.6mb 37f 24f
7:12  -  mph 1016.7mb 37f 24f
7:06  -  mph 1016.7mb 37f 24f
7:00  -  mph 1016.8mb 37f 24f
6:54  -  mph 1016.9mb 37f 24f
6:48 11 15 mph - 37f -
6:42 10 16 mph - 37f -
6:36 10 14 mph - 37f -
6:30  -  mph 1017.1mb 37f 24f
6:24  -  mph 1017.2mb 37f 24f
6:18 10 15 mph 1017.2mb 37f 24f
6:12 11 14 mph 1017.2mb 37f 24f
6:06 11 14 mph 1017.2mb 37f 24f
6:00  -  mph 1017.3mb 37f 24f
5:54  -  mph 1017.4mb 37f 24f
5:48 13 15 mph 1017.5mb 37f 24f
5:42 9 14 mph 1017.5mb 37f 24f
5:36 10 15 mph 1017.5mb 37f 24f
5:30 10 16 mph 1017.5mb - -
5:24 11 14 mph 1017.5mb - -
5:18 11 14 mph 1017.5mb 37f 24f
5:12 13 16 mph 1017.6mb 37f 24f
5:06 14 16 mph 1017.6mb 37f 24f
5:00 13 17 mph 1017.7mb 37f 24f
4:54 14 20 mph 1017.7mb 37f 24f
4:48 14 17 mph 1017.8mb 37f 24f
4:42 14 20 mph 1017.9mb 37f 24f
4:36 16 20 mph 1017.9mb 37f 24f
4:30 15 20 mph 1018mb 37f 24f
4:24 15 20 mph 1018.1mb 37f 24f
4:18 15 22 mph 1018.2mb 37f 24f
4:12 17 21 mph 1018.1mb 37f 24f
4:06 13 16 mph 1018.2mb 37f 24f
4:00 14 21 mph 1018.3mb 37f 24f
3:54 16 21 mph 1018.4mb 37f 24f
3:48 13 16 mph 1018.5mb 37f 24f
3:42 14 18 mph 1018.5mb 37f 24f
3:36 14 21 mph 1018.5mb 37f 24f
3:30 13 18 mph 1018.5mb 37f 24f
3:24 15 20 mph 1018.6mb 37f 24f
3:18 11 20 mph 1018.6mb 37f 24f
3:12 11 16 mph 1018.8mb 37f 24f
3:06 14 16 mph 1018.8mb 37f 24f
3:00 14 15 mph 1018.8mb 37f 24f
2:54 10 13 mph 1018.9mb 37f 24f
2:48 8 10 mph 1018.9mb 37f 24f
2:42 6 8 mph 1019mb 37f 24f
2:36 8 9 mph 1018.9mb 37f 24f
2:30 6 10 mph 1018.9mb 37f 24f
2:24 7 10 mph 1019mb 37f 24f
2:18 7 9 mph 1019.2mb 37f 23f
2:12 8 9 mph 1019.2mb 37f 23f
2:06 10 13 mph 1019.3mb 37f 23f
2:00 10 13 mph 1019.4mb 37f 23f
1:54 7 11 mph 1019.6mb 37f 23f
1:48 7 14 mph 1019.8mb 37f 23f
1:42 8 11 mph 1019.8mb 37f 23f
1:36 6 11 mph 1019.9mb 37f 23f
1:30 11 14 mph 1020mb 37f 23f
1:24 6 9 mph 1020.1mb 37f 23f
1:18 7 10 mph 1020.2mb 37f 23f
1:12 6 9 mph 1020.3mb 37f 23f
1:06 6 9 mph 1020.5mb 37f 23f
1:00 6 9 mph 1020.6mb 37f 23f
12:54 5 9 mph 1020.6mb 37f 22f
12:48 3 6 mph 1020.7mb 37f 22f
12:42 2 6 mph 1020.8mb 37f 23f
12:36 6 8 mph 1021.1mb 37f 22f
12:30 6 8 mph 1021.3mb 37f 22f
12:24 7 10 mph 1021.5mb 37f 22f
12:18 7 10 mph 1021.6mb 36f 22f
12:12 6 11 mph 1021.7mb 36f 22f
12:06 9 11 mph 1021.7mb 36f 21f
12:00 6 13 mph 1021.9mb 36f 21f
11:54 11 13 mph 1022mb 36f 21f
11:48 10 13 mph 1022mb 36f 21f
11:42 3 11 mph 1022.1mb 36f 21f
11:36 9 11 mph 1022.2mb 36f 20f
11:30 8 10 mph 1022.3mb 36f 20f
11:24 5 6 mph 1022.3mb 36f 20f
11:18 5 8 mph 1022.5mb 36f 20f
11:12 6 11 mph 1022.7mb 36f 20f
11:06 7 9 mph 1022.7mb 36f 20f
11:00 6 9 mph 1022.9mb 36f 19f
10:54 6 13 mph 1023mb 36f 19f
10:48 8 13 mph 1023.1mb 36f 20f
10:42 6 9 mph 1023.1mb 36f 19f
10:36 8 13 mph 1023mb 36f 18f
10:30 8 11 mph 1022.9mb 36f 19f
10:24 7 11 mph 1023mb 36f 18f
10:18 9 11 mph 1023.1mb 36f 18f
10:12 7 11 mph 1023.2mb 36f 18f
10:06 9 14 mph 1023.3mb 36f 17f
10:00 10 15 mph 1023.6mb 36f 17f
9:54 10 14 mph 1023.6mb 36f 17f
9:48 7 15 mph 1023.7mb 36f 17f
9:42 9 14 mph 1023.8mb 36f 17f
9:36 9 16 mph 1023.9mb 36f 16f
9:30 10 14 mph 1024mb 36f 16f
9:24 10 14 mph 1024.1mb 36f 16f
9:18 11 15 mph 1024.2mb 36f 16f
9:12 13 16 mph 1024.2mb 36f 15f
9:06 6 11 mph 1024.1mb 36f 16f
9:00 7 14 mph 1024mb 36f 15f
8:54 5 8 mph 1024mb 36f 15f
8:48 8 13 mph 1024mb 36f 15f
8:42 7 13 mph 1024mb 36f 15f
8:36 6 11 mph 1024mb 36f 15f
8:30 7 11 mph 1023.9mb 36f 14f
8:24 6 10 mph 1023.9mb 36f 13f
8:18 7 11 mph 1023.8mb 37f 13f
8:12 8 11 mph 1023.7mb 37f 13f
8:06 7 10 mph 1023.8mb 37f 13f
8:00 7 9 mph 1023.9mb 37f 13f
7:54 8 11 mph 1023.9mb 37f 12f
7:48 8 11 mph 1023.9mb 37f 12f
7:42 6 9 mph 1023.9mb 37f 12f
7:36 9 11 mph 1023.9mb 37f 11f
7:30 7 11 mph 1023.9mb 38f 12f
7:24 9 13 mph 1023.8mb 38f 11f
7:18 8 11 mph 1023.8mb 38f 11f
7:12 8 10 mph 1023.7mb 38f 11f
7:06 7 13 mph 1023.5mb 38f 11f
7:00 7 11 mph 1023.5mb 38f 11f
6:54 7 10 mph 1023.6mb 38f 11f
6:48 6 10 mph 1023.6mb 38f 11f
6:42 6 9 mph 1023.6mb 38f 11f
6:36 8 14 mph 1023.6mb 38f 11f
6:30 10 14 mph 1023.7mb 38f 11f
6:24 8 11 mph 1023.6mb 38f 11f
6:18 6 10 mph 1023.4mb 38f 10f
6:12 8 13 mph 1023.3mb 38f 11f
6:06 9 13 mph 1023.3mb 38f 10f
6:00 9 13 mph 1023.1mb 38f 10f
5:54 9 13 mph 1023mb 38f 10f
5:48 7 10 mph 1023mb 38f 11f
5:42 7 11 mph 1023mb 38f 11f
5:36 9 13 mph 1023mb 38f 11f
5:30 9 11 mph 1023mb 38f 11f
5:24 9 10 mph 1022.9mb 38f 11f
5:18 7 13 mph 1022.9mb 38f 11f
5:12 7 10 mph 1022.8mb 38f 11f
5:06 6 10 mph 1022.8mb 38f 11f
5:00  -  mph - - 11f
4:54  -  mph - - 11f
4:48  -  mph 1022.4mb 38f 11f
4:42  -  mph 1022.3mb 38f 11f
4:36  -  mph 1022.4mb 38f 11f
4:30 6 14 mph 1022.3mb 38f 11f
4:24 6 13 mph 1022.2mb 38f 11f
4:18 8 13 mph 1022.3mb 38f 11f
4:12 8 11 mph 1022.3mb 38f 11f
4:06 9 14 mph 1022.2mb 38f 11f
4:00 9 14 mph 1022.2mb 38f 11f
3:54 8 15 mph 1022.2mb 38f 12f
3:48 9 13 mph 1022.2mb 38f 11f
3:42 8 14 mph 1022.1mb 38f 11f
3:36 10 15 mph 1022.1mb 38f 11f
3:30 7 11 mph 1022mb 38f 12f
3:24 8 14 mph 1021.9mb 38f 12f
3:18 9 13 mph 1021.8mb 38f 11f
3:12 7 13 mph 1021.8mb 38f 12f
3:06 9 14 mph 1021.7mb 38f 12f
3:00 8 15 mph 1021.6mb 38f 12f
2:54 9 14 mph 1021.6mb 38f 12f
2:48 8 13 mph 1021.5mb 38f 13f
2:42 8 17 mph 1021.5mb 38f 13f
2:36 8 17 mph 1021.4mb 38f 13f
2:30 10 15 mph 1021.3mb 38f 12f
2:24 10 16 mph 1021.2mb 38f 13f
2:18 11 17 mph 1021mb 38f 13f
2:12 10 16 mph 1021mb 38f 13f
2:06 11 21 mph 1020.9mb 38f 13f
2:00 9 17 mph 1020.7mb 38f 13f
1:54 15 22 mph 1020.6mb 38f 13f
1:48 14 28 mph 1020.4mb 38f 13f
1:42 17 25 mph 1020.3mb 38f 13f
1:36 15 24 mph 1020.2mb 38f 13f
1:30 16 25 mph 1020.1mb 38f 14f
1:24 16 29 mph 1020mb 38f 14f
1:18 16 23 mph 1020.1mb 38f 14f
1:12 15 20 mph 1019.8mb 38f 14f
1:06 16 23 mph 1019.9mb 38f 14f
1:00 10 17 mph 1019.8mb 38f 14f
12:54 15 24 mph 1019.7mb 38f 14f
12:48 8 14 mph 1019.7mb 38f 14f
12:42 10 18 mph 1019.6mb 38f 14f
12:36 13 18 mph 1019.3mb 38f 15f
12:30 11 17 mph 1019.3mb 38f 14f
12:24 9 21 mph 1019.2mb 38f 15f
12:18 14 22 mph 1018.9mb 38f 14f
12:12 10 20 mph 1018.8mb 38f 15f
12:06 11 21 mph 1018.7mb 38f 15f
12:00 14 23 mph 1018.5mb 38f 15f
jeu. 02/11 11:54 13 17 mph 1018.4mb 38f 15f
11:48 13 20 mph 1018.5mb 38f 15f
11:42 13 26 mph 1018.6mb 38f 15f
11:36 11 18 mph 1018.6mb 38f 15f
11:30 13 17 mph 1018.6mb 38f 15f
11:24 14 22 mph 1018.5mb 38f 15f
11:18 14 22 mph 1018.3mb 38f 15f
11:12 16 23 mph 1018.1mb 38f 15f
11:06 10 28 mph 1018mb 38f 15f
11:00 15 22 mph 1017.9mb 38f 15f
10:54 15 20 mph 1017.8mb 38f 15f
10:48 17 28 mph 1017.7mb 38f 15f
10:42 14 32 mph 1017.7mb 38f 15f
10:36 15 22 mph 1017.6mb 38f 15f
10:30 16 22 mph 1017.7mb 38f 15f
10:24 13 21 mph 1017.7mb 38f 15f
10:18  -  mph 1017.7mb 38f 15f
10:12  -  mph 1017.5mb 38f 15f
10:06  -  mph 1017.5mb 38f 15f
10:00  -  mph 1017.6mb 38f 15f
9:54  -  mph 1017.6mb 38f 16f
9:48 10 18 mph - 38f 16f
9:42 11 17 mph - 38f 15f
9:36 14 20 mph - 38f 15f
9:30 13 20 mph 1017.3mb 38f -
9:24 9 21 mph 1017.2mb 38f -
9:18  -  mph 1017mb 38f -
9:12  -  mph 1016.9mb 38f -
9:06  -  mph 1016.8mb 38f -
9:00  -  mph - 38f 16f
8:54  -  mph - 38f 16f
8:48  -  mph 1016.3mb 38f 16f
8:42  -  mph 1016.2mb 38f 16f
8:36  -  mph 1016mb 38f 17f
8:30  -  mph 1016mb - -
8:24  -  mph 1015.8mb - -
8:18  -  mph 1015.8mb 38f -
8:12  -  mph 1015.7mb 38f -
8:06  -  mph 1015.7mb 38f -
8:00  -  mph 1015.5mb 38f 17f
7:54  -  mph 1015.4mb 38f 17f
7:48 17 24 mph 1015.3mb 38f 17f
7:42 16 23 mph 1015.2mb 38f 18f
7:36 14 28 mph 1015.1mb 38f 18f
7:30 17 26 mph 1015mb 39f 18f
7:24 16 29 mph 1014.9mb 39f 18f
7:18  -  mph 1014.8mb 39f 18f
7:12  -  mph 1014.6mb 39f 18f
7:06  -  mph 1014.6mb 39f 19f
7:00 17 30 mph 1014.4mb 39f 19f
6:54 17 24 mph 1014.2mb 39f 19f
6:48 14 20 mph 1014.1mb 39f -
6:42 15 29 mph 1014mb 39f -
6:36 21 28 mph 1013.8mb 39f -
6:30  -  mph 1013.7mb 39f -
6:24  -  mph 1013.5mb 39f -
6:18  -  mph 1013.4mb 39f 20f
6:12  -  mph 1013.1mb 39f 20f
6:06  -  mph 1012.9mb 39f 20f
6:00 14 20 mph 1012.7mb 39f 20f
5:54 11 17 mph 1012.6mb 39f 21f
5:48 13 22 mph 1012.4mb 40f -
5:42 15 30 mph 1012.2mb 40f -
5:36 17 28 mph 1011.9mb 40f -
5:30 17 29 mph 1011.8mb - 22f
5:24 14 21 mph 1011.7mb - 22f
5:18  -  mph 1011.5mb 40f 22f
5:12  -  mph 1011.3mb 40f 22f
5:06  -  mph 1011.2mb 40f 22f
5:00  -  mph 1011.1mb 40f 22f
4:54  -  mph 1010.8mb 40f 22f
4:48  -  mph - 40f 24f
4:42  -  mph - 40f 24f
4:36  -  mph - 40f 24f
4:30 17 25 mph 1010.4mb 40f 23f
4:24 16 30 mph 1010.2mb 40f 24f
4:18 20 29 mph 1010.1mb - -
4:12 15 28 mph 1010.1mb - -
4:06 22 29 mph 1009.9mb - -
4:00 16 29 mph 1009.6mb 40f 24f
3:54 17 28 mph 1009.6mb 40f 24f
3:48 13 23 mph 1009.6mb 39f 25f
3:42 17 24 mph 1009.3mb 39f 25f
3:36 14 28 mph 1009.3mb 39f 25f
3:30 23 31 mph 1009mb 39f 25f
3:24 17 32 mph 1009.1mb 39f 25f
3:18 16 26 mph 1009mb 39f 25f
3:12 18 28 mph 1008.9mb 39f 25f
3:06 20 26 mph 1008.8mb 39f 25f
3:00 22 28 mph 1008.7mb 39f 25f
2:54 18 26 mph 1008.6mb 39f 25f
2:48 21 26 mph 1008.5mb 39f 25f
2:42 20 26 mph 1008.4mb 39f 25f
2:36 20 29 mph 1008.3mb 39f 25f
2:30 20 29 mph 1008.2mb 39f 26f
2:24 22 33 mph 1008mb 39f 26f
2:18 28 32 mph 1007.7mb 39f 26f
2:12 14 31 mph 1007.9mb 39f 27f
2:06 20 26 mph 1007.7mb 39f 26f
2:00 15 23 mph 1007.8mb 39f 26f
1:54 14 28 mph 1007.7mb 39f 26f
1:48 13 22 mph 1007.6mb 39f 27f
1:42 13 26 mph 1007.7mb 39f 27f
1:36 18 26 mph 1007.6mb 39f 26f
1:30 17 25 mph 1007.7mb 39f 26f
1:24 16 25 mph 1007.7mb 39f 26f
1:18 20 25 mph 1007.7mb 39f 26f
1:12 18 24 mph 1007.7mb 39f 25f
1:06 17 25 mph 1007.6mb 39f 26f
1:00 14 21 mph 1007.5mb 39f 26f
12:54 20 25 mph 1007.6mb 39f 26f
12:48 17 25 mph 1007.7mb 39f 26f
12:42 20 26 mph 1007.6mb 39f 26f
12:36 15 20 mph 1007.6mb 39f 26f
12:30 14 22 mph 1007.7mb 39f 26f
12:24 14 22 mph 1007.7mb 39f 27f
12:18 14 22 mph 1007.8mb 39f 26f
12:12 17 24 mph 1007.7mb 39f 27f
12:06 21 24 mph 1007.7mb 39f 27f
12:00 16 20 mph 1007.8mb 39f 27f
11:54 20 26 mph 1007.8mb 39f 28f
11:48 16 28 mph 1007.9mb 38f 27f
11:42 14 21 mph 1007.9mb 38f 27f
11:36 16 24 mph 1007.8mb 38f 27f
11:30 14 20 mph 1007.9mb 38f 27f
11:24 11 16 mph 1007.8mb 38f 27f
11:18 10 18 mph 1008mb 38f 27f
11:12 16 21 mph 1008mb 38f 26f
11:06 14 23 mph 1008.1mb 38f 26f
11:00 17 28 mph 1008mb 38f -
10:54 10 16 mph 1008mb 38f -
10:48 14 22 mph 1008mb 38f 26f
10:42 14 18 mph 1008.1mb 38f 26f
10:36 15 20 mph 1008.1mb 38f 26f
10:30 11 16 mph - 38f 26f
10:24 14 20 mph - 38f 26f
10:18 13 21 mph 1008mb 38f 26f
10:12 13 17 mph 1008mb 38f 26f
10:06 9 17 mph 1007.9mb 38f 26f
10:00 8 16 mph 1007.9mb 38f 26f
9:54 11 17 mph 1007.8mb 38f 26f
9:48 11 20 mph 1007.8mb 38f 26f
9:42 11 18 mph 1007.7mb 37f 26f
9:36 15 18 mph 1007.8mb 37f 26f
9:30 14 18 mph 1007.7mb 37f 26f
9:24 14 18 mph 1007.7mb 37f 26f
9:18 13 20 mph 1007.6mb 37f 26f
9:12 13 18 mph 1007.6mb 37f 26f
9:06 10 17 mph 1007.6mb 37f 27f
9:00 13 20 mph 1007.5mb 37f 26f
8:54 9 17 mph 1007.6mb 37f 26f
8:48 13 20 mph 1007.6mb 37f 26f
8:42 11 16 mph 1007.5mb 37f 26f
8:36 10 15 mph 1007.4mb 37f 26f
8:30 10 14 mph 1007.4mb 37f 27f
8:24 8 15 mph 1007.3mb 37f 27f
8:18 14 18 mph 1007.3mb 37f 26f
8:12 10 15 mph 1007.3mb 37f 26f
8:06 10 15 mph 1007.2mb 37f 26f
8:00 9 13 mph 1007.1mb 38f 27f
7:54 9 14 mph 1006.9mb 38f 27f
7:48 7 13 mph 1006.9mb 38f 27f
7:42 8 14 mph 1006.8mb 38f 27f
7:36 10 17 mph 1006.7mb 38f 27f
7:30 9 16 mph 1006.6mb 38f 27f
7:24 6 10 mph 1006.6mb 38f 27f
7:18 5 7 mph 1006.6mb 38f 27f
7:12 6 9 mph 1006.4mb 38f 27f
7:06 7 11 mph 1006.4mb 38f 27f
7:00 6 8 mph 1006.3mb 38f 27f
6:54 7 8 mph 1006.3mb 38f 27f
6:48 5 8 mph 1006.1mb 38f 27f
6:42 7 9 mph 1005.9mb 38f 27f
6:36 7 10 mph 1005.9mb 38f 27f
6:30 5 8 mph 1006mb 38f 27f
6:24 6 8 mph 1006mb 38f 27f
6:18 6 9 mph 1006mb 38f 27f
6:12 7 10 mph 1006mb 38f 26f
6:06 6 10 mph 1006mb 38f 26f
6:00 7 9 mph 1006mb 38f 26f
5:54 7 9 mph 1006mb 38f 26f
5:48 5 8 mph 1005.9mb 38f 26f
5:42 3 7 mph 1005.9mb 38f 26f
5:36 6 8 mph 1005.9mb 38f 26f
5:30 6 10 mph 1005.8mb 38f 26f
5:24 7 9 mph 1005.8mb 38f 26f
5:18  -  mph - - 26f
5:12  -  mph - - 26f
5:06  -  mph - - 26f
5:00  -  mph - - 26f
4:54  -  mph - - 26f
4:48  -  mph - 38f 26f
4:42  -  mph - 38f 27f
4:36  -  mph - 38f 27f
4:30 6 8 mph 1005.2mb 38f 27f
4:24 6 9 mph 1005.2mb 38f 27f
4:18 7 8 mph 1005.2mb 38f 27f
4:12 6 8 mph 1005.2mb 38f 28f
4:06 5 8 mph 1005.2mb 38f 28f
4:00 7 9 mph 1005.2mb 38f 28f
3:54 6 7 mph 1005.1mb 38f 28f
3:48 5 7 mph 1005mb 38f 28f
3:42 3 7 mph 1005mb 38f 28f
3:36 5 7 mph 1005mb 38f 28f
3:30 6 7 mph 1004.9mb 38f 28f
3:24 5 6 mph 1004.9mb 38f 28f
3:18 5 8 mph 1004.9mb 38f 28f
3:12 5 6 mph 1004.8mb 38f 28f
3:06 3 6 mph 1004.8mb 38f 28f
3:00 3 6 mph 1004.9mb 38f 28f
2:54 5 7 mph 1004.9mb 38f 28f
2:48 6 8 mph 1005mb 38f 29f
2:42 6 9 mph 1005mb 38f 29f
2:36 6 9 mph 1005mb 38f 29f
2:30 3 7 mph 1005mb 38f 29f
2:24 6 8 mph 1005mb 38f 29f
2:18 5 8 mph 1005.1mb 38f 29f
2:12 5 8 mph 1005.1mb 38f 29f
2:06 6 9 mph 1005.1mb 38f 29f
2:00 6 9 mph 1005mb 38f 29f
1:54 6 8 mph 1005mb 38f 29f
1:48 6 9 mph 1005.1mb 38f 30f
1:42 7 8 mph 1005.1mb 38f 30f
1:36 6 8 mph 1005.2mb 38f 30f
1:30 6 8 mph 1005.2mb 38f 30f
1:24 6 9 mph 1005.2mb 38f 30f
1:18 7 9 mph 1005.2mb 38f 30f
1:12 6 7 mph 1005.2mb 38f 30f
1:06 6 8 mph 1005.2mb 38f 30f
1:00 6 8 mph 1005.3mb 38f 30f
12:54 6 7 mph 1005.3mb 38f 31f
12:48 6 9 mph 1005.3mb 38f 31f
12:42 8 9 mph 1005.2mb 38f 31f
12:36 6 8 mph 1005.3mb 38f 31f
12:30 7 9 mph 1005.3mb 38f 31f
12:24 6 8 mph 1005.2mb 38f 31f
12:18 6 7 mph 1005.2mb 38f 31f
12:12 6 8 mph 1005.2mb 38f 31f
12:06 6 8 mph 1005.2mb 38f 32f
12:00 5 8 mph 1005.2mb 38f 32f
mer. 02/10 11:54 7 9 mph 1005mb 38f 32f
11:48 7 9 mph 1005mb 38f 31f
11:42 6 8 mph 1005.2mb 38f 31f
11:36 6 7 mph 1005.3mb 38f 32f
11:30 6 7 mph 1005.3mb 38f 32f
11:24 5 6 mph 1005.3mb 38f 32f
11:18 3 7 mph 1005.3mb 38f 32f
11:12 6 9 mph 1005.3mb 38f 32f
11:06 6 8 mph 1005.3mb 38f 32f
11:00 6 9 mph 1005.3mb 38f 32f
10:54 6 9 mph 1005.2mb 38f 33f
10:48 6 8 mph 1005.2mb 38f 33f
10:42 6 8 mph 1005.1mb 38f 33f
10:36 5 7 mph 1005.1mb 38f 33f
10:30 6 8 mph 1005mb 38f 33f
10:24 5 9 mph 1004.9mb 38f 33f
10:18 6 8 mph 1004.9mb 38f 33f
10:12 6 8 mph 1004.8mb 38f 33f
10:06 6 8 mph 1004.8mb 38f 33f
10:00  -  mph 1004.7mb 38f 34f
9:54  -  mph 1004.7mb 38f 34f
9:48 6 9 mph - 38f 34f
9:42 7 9 mph - 38f 34f
9:36 6 11 mph - 38f 34f
9:30  -  mph 1004.5mb 38f 34f
9:24  -  mph 1004.4mb 37f 34f
9:18 8 11 mph 1004.3mb 37f 34f
9:12 7 10 mph 1004.4mb 37f 34f
9:06 8 10 mph 1004.3mb 37f 34f
9:00  -  mph - 37f 34f
8:54  -  mph - 37f 34f
8:48  -  mph - - 33f
8:42  -  mph - - 33f
8:36  -  mph - - 33f
8:30 7 8 mph 1004.2mb 37f 33f
8:24 6 8 mph 1004.2mb 37f 33f
8:18 7 9 mph 1004.1mb 37f 33f
8:12 8 9 mph 1004.1mb 37f 33f
8:06 9 10 mph 1004.1mb 37f 33f
8:00 8 10 mph 1004.1mb 37f 33f
7:54 9 11 mph 1004.1mb 37f 33f
7:48 9 10 mph 1004.1mb 37f 33f
7:42 9 10 mph 1004mb 37f 33f
7:36 8 9 mph 1003.9mb 37f 33f
7:30  -  mph 1003.9mb 37f 33f
7:24  -  mph 1004mb 37f 34f
7:18  -  mph 1004mb 37f 34f
7:12  -  mph 1003.9mb 37f 34f
7:06  -  mph 1003.8mb 37f 34f
7:00  -  mph 1003.9mb 37f 34f
6:54  -  mph 1003.9mb 37f 34f
6:48 8 10 mph 1003.8mb 37f -
6:42 9
mph
1003.8mb 37f -
6:36 8 10 mph 1003.8mb 37f -
6:30  -  mph 1003.8mb 37f 35f
6:24  -  mph 1003.8mb 37f 35f
6:18  -  mph 1003.8mb 37f 35f
6:12  -  mph 1003.7mb 37f 35f
6:06  -  mph 1003.7mb 37f 35f
6:00  -  mph 1003.6mb 37f 35f
5:54  -  mph 1003.5mb 37f 35f
5:48 6 7 mph - 37f 35f
5:42 7 8 mph - 37f 35f
5:36 7 8 mph - 37f 35f
5:30 7 9 mph 1003.1mb 38f -
5:24 8 9 mph 1003mb 38f -
5:18  -  mph 1003mb 38f 35f
5:12  -  mph 1002.8mb 38f 35f
5:06  -  mph 1002.7mb 38f 35f
5:00 8
mph
- 38f 36f
4:54 7 8 mph - 38f 36f
4:48 7 8 mph 1002.4mb 38f 36f
4:42 6 7 mph 1002.3mb 38f 36f
4:36 7 8 mph 1002.2mb 38f 36f
4:30 7
mph
1002.1mb 38f 36f
4:24 5 7 mph 1002mb 38f 36f
4:18 6 7 mph 1002mb 38f 36f
4:12 5 6 mph 1002mb 38f 35f
4:06 3 5 mph 1002mb 38f 36f
4:00 2 5 mph 1001.9mb 38f 36f
3:54 3
mph
1001.8mb 38f 35f
3:48 3 5 mph 1001.7mb 38f 35f
3:42 5
mph
1001.7mb 38f 34f
3:36 5
mph
1001.7mb 38f 34f
3:30 5
mph
1001.6mb 38f 34f
3:24 3 5 mph 1001.5mb 38f 34f
3:18 5
mph
1001.5mb 38f 34f
3:12 5
mph
1001.4mb 38f 34f
3:06 5
mph
1001.3mb 38f 34f
3:00 3 5 mph 1001.2mb 38f 34f
2:54 5 6 mph 1001.2mb 38f 34f
2:48 5 6 mph 1001.2mb 38f 34f
2:42 5 6 mph 1001.2mb 38f 33f
2:36 6 7 mph 1001.1mb 38f 33f
2:30 7 8 mph 1001mb 38f 33f
2:24 7 8 mph 1001mb 38f 33f
2:18 7 8 mph 1001mb 38f 33f
2:12 7 8 mph 1001mb 38f 33f
2:06 7
mph
1001mb 38f 33f
2:00 7
mph
1000.9mb 38f 33f
1:54 7
mph
1000.9mb 38f 33f
1:48 6 7 mph 1001mb 38f 33f
1:42 5 6 mph 1001mb 38f 33f
1:36 2 3 mph 1001mb 38f 33f
1:30 2 3 mph 1001mb 38f 33f
1:24 2 3 mph 1001mb 38f 33f
1:18 2
mph
1001mb 38f 33f
1:12 2
mph
1001mb 38f 33f
1:06 1 2 mph 1001mb 38f 34f
1:00 1
mph
1001.1mb 38f 34f
12:54  -  1 mph 1001.1mb 38f 35f
12:48  -  1 mph 1001.2mb 38f 35f
12:42  -  1 mph 1001.2mb 38f 35f
12:36  -  1 mph 1001.2mb 38f 34f
12:30  -  1 mph 1001.2mb 38f 35f
12:24  -  1 mph 1001.3mb 38f 35f
12:18  -  1 mph 1001.3mb 38f 35f
12:12  -  2 mph 1001.4mb 38f 35f
12:06 1
mph
1001.5mb 38f 35f
12:00 1 2 mph 1001.6mb 38f 34f
11:54 1 2 mph 1001.7mb 38f 35f
11:48  -  2 mph 1001.7mb 38f 35f
11:42 1
mph
1001.8mb 38f 34f
11:36 1 3 mph 1001.8mb 38f 34f
11:30 3 5 mph 1001.9mb 38f 34f
11:24 3 5 mph 1002mb 38f 34f
11:18 3 5 mph 1002mb 38f 33f
11:12 5 6 mph 1002.1mb 38f 33f
11:06 5 6 mph 1002.2mb 38f 33f
11:00 7 8 mph 1002.3mb 38f 33f
10:54 5 7 mph 1002.5mb 37f 33f
10:48 6 7 mph 1002.5mb 37f 33f
10:42 6 8 mph 1002.5mb 37f 33f
10:36 7
mph
1002.5mb 37f 33f
10:30 6 7 mph 1002.6mb 37f 33f
10:24 6 8 mph 1002.7mb 37f 33f
10:18 3 6 mph 1002.8mb 37f 33f
10:12 5 6 mph 1002.9mb 37f 33f
10:06 3 6 mph 1002.8mb 37f 33f
10:00 5 6 mph 1002.9mb 37f 32f
9:54 5 6 mph 1002.9mb 37f 32f
9:48 5 6 mph 1002.9mb 37f 32f
9:42 5 6 mph 1003mb 37f 32f
9:36 5 6 mph 1003mb 37f 32f
9:30 3 6 mph 1003mb 37f 32f
9:24 3 6 mph 1003.1mb 37f 32f
9:18 3 6 mph 1003mb 37f 32f
9:12 5 6 mph 1003.1mb 37f 32f
9:06 3 5 mph 1003.1mb 37f 32f
9:00 3 5 mph 1003.1mb 37f 31f
8:54 2 5 mph 1003.2mb 37f 31f
8:48 3
mph
1003.2mb 37f 30f
8:42 3 5 mph 1003.2mb 37f 30f
8:36 3 5 mph 1003.2mb 37f 29f
8:30 3 5 mph 1003.2mb 37f 29f
8:24 3 6 mph 1003.2mb 37f 29f
8:18 5 6 mph 1003.2mb 37f 28f
8:12 5 6 mph 1003.2mb 37f 28f
8:06 5 6 mph 1003.2mb 37f 27f
8:00 5 6 mph 1003.2mb 37f 27f
7:54 5 6 mph 1003.2mb 37f 27f
7:48 6
mph
1003.2mb 37f 26f
7:42 6
mph
1003.1mb 37f 26f
7:36 5 6 mph 1003.1mb 37f 26f
7:30 5 6 mph 1003.1mb 37f 26f
7:24 5 6 mph 1003.1mb 37f 26f
7:18 5
mph
1003.2mb 37f 26f
7:12 5
mph
1003.2mb 37f 26f
7:06 3 6 mph 1003.2mb 37f 26f
7:00 5
mph
1003.2mb 37f 26f
6:54 3 5 mph 1003.2mb 37f 26f
6:48 2 3 mph 1003mb 37f 26f
6:42 2 3 mph 1003mb 37f 26f
6:36 2 3 mph 1003.1mb 37f 26f
6:30 2 3 mph 1003.1mb 37f 26f
6:24 2 3 mph 1003mb 37f 26f
6:18 2
mph
1003mb 37f 26f
6:12 2
mph
1003mb 37f 26f
6:06 2
mph
1003mb 37f 26f
6:00 2 3 mph 1003mb 37f 26f
5:54 2
mph
1002.9mb 37f 26f
5:48 2
mph
1002.9mb 37f 26f
5:42 1 2 mph 1002.9mb 37f 27f
5:36 1 2 mph 1003mb 37f 26f
5:30 1 2 mph 1003mb 38f 26f
5:24 2 3 mph 1003mb 38f 26f
5:18 2 3 mph 1003mb 38f 26f
5:12 2
mph
1002.9mb 38f 26f
5:06 2 3 mph 1002.8mb 38f 26f
5:00 2
mph
1002.8mb 38f 26f
4:54  -  1 mph 1002.8mb 38f 27f
4:48  -  mph 1002.8mb 38f 27f
4:42  -  mph 1002.8mb 38f 27f
4:36  -  mph 1002.7mb 38f 27f
4:30  -  2 mph 1002.7mb 38f 26f
4:24  -  1 mph 1002.7mb 38f 26f
4:18  -  2 mph 1002.6mb 38f 25f
4:12 1 2 mph 1002.5mb 38f 25f
4:06 2
mph
1002.5mb 38f 25f
4:00 2
mph
1002.5mb 38f 26f
3:54 1 2 mph 1002.6mb 38f 26f
3:48 1 3 mph 1002.7mb 38f 26f
3:42 2
mph
1002.7mb 38f 26f
3:36 2 3 mph 1002.8mb 38f 26f
3:30 3 5 mph 1002.8mb 38f 26f
3:24 3
mph
1002.8mb 38f 26f
3:18 1 2 mph 1002.8mb 38f 26f
3:12 2 3 mph 1002.8mb 38f 25f
3:06 1 2 mph 1002.7mb 38f 25f
3:00 2 3 mph 1002.7mb 38f 25f
2:54 2 3 mph 1002.7mb 38f 25f
2:48 3
mph
1002.6mb 38f 24f
2:42 2 3 mph 1002.6mb 38f 24f
2:36 2 3 mph 1002.7mb 38f 25f
2:30 2 3 mph 1002.8mb 38f 24f
2:24 2
mph
1002.8mb 38f 24f
2:18 2 3 mph 1002.8mb 38f 25f
2:12 2 5 mph 1002.9mb 38f 26f
2:06 1 2 mph 1003mb 38f 26f
2:00 2 3 mph 1003mb 38f 26f
1:54  -  2 mph 1002.9mb 38f 25f
1:48  -  1 mph 1002.8mb 38f 26f
1:42 1 2 mph 1002.8mb 38f 26f
1:36 1 2 mph 1002.8mb 38f 25f
1:30 2 3 mph 1002.8mb 38f 26f
1:24 2 5 mph 1002.7mb 38f 26f
1:18 3
mph
1002.8mb 38f 26f
1:12 2 3 mph 1002.8mb 38f 25f
1:06  -  2 mph 1002.7mb 38f 24f
1:00 2 3 mph 1002.6mb 38f 24f
12:54 3 5 mph 1002.6mb 38f 25f
12:48 3 6 mph 1002.6mb 38f 24f
12:42 6
mph
1002.9mb 38f 26f
12:36 5 6 mph 1003mb 38f 26f
12:30 2 3 mph 1002.8mb 38f 26f
12:24 1 2 mph 1002.7mb 38f 26f
12:18  -  1 mph 1002.7mb 38f 26f
12:12  -  2 mph 1002.7mb 38f 26f
12:06 2
mph
1002.9mb 38f 26f
12:00 2 3 mph 1002.9mb 38f 26f
mar. 02/09 11:54 2 3 mph 1002.9mb 38f 26f
11:48 2 3 mph 1002.9mb 38f 26f
11:42 3 5 mph 1002.9mb 38f 25f
11:36 3 5 mph 1002.8mb 38f 25f
11:30 3
mph
1002.8mb 38f 26f
11:00 1 2 mph 1003.2mb 38f 27f
10:54 2 5 mph 1003.4mb 38f 27f
10:48 5
mph
1003mb 38f 27f
10:42 3 5 mph 1003.1mb 38f 26f
10:36 2 3 mph 1003.1mb 38f 26f
10:30 3 5 mph 1003mb 38f 26f
10:24 3 5 mph 1003.1mb 38f 27f
10:18 3 5 mph 1003mb 38f 26f
10:12 3 5 mph 1003mb 38f 27f
10:06 2 3 mph 1003.1mb 38f 27f
10:00 2
mph
1003.2mb 38f 27f
9:54 2
mph
1003.3mb 38f 27f
9:48  -  mph 1003.4mb 38f 27f
9:42  -  mph 1003.4mb 38f 27f
9:36  -  mph 1003.5mb 38f 28f
9:30 3 5 mph 1003.6mb 38f 28f
9:24 3 5 mph 1003.5mb 38f 28f
9:18 2 5 mph 1003.6mb 38f 28f
9:12 3 5 mph 1003.6mb 38f 28f
9:06 3
mph
1003.6mb 38f 28f
9:00 2 5 mph 1003.7mb 38f 28f
8:54 3 5 mph 1003.7mb 38f 28f
8:48 2 3 mph 1003.8mb 38f 28f
8:42 3 5 mph 1003.8mb 38f 28f
8:36 2 3 mph 1003.7mb 38f 28f
8:30 2 5 mph 1003.7mb 38f 28f
8:24 3 6 mph 1003.7mb 38f 28f
8:18 3 6 mph 1003.6mb 38f 28f
8:12 3 5 mph 1003.6mb 38f 29f
8:06 2 5 mph 1003.5mb 38f 28f
8:00 3 5 mph 1003.6mb 38f 28f
7:54 3 6 mph 1003.6mb 38f 28f
7:48  -  mph 1003.5mb 38f 29f
7:42  -  mph 1003.3mb 38f 29f
7:36  -  mph 1003.3mb 38f 29f
7:30 6 7 mph 1003.2mb 38f 29f
7:24 6
mph
1003mb 38f 29f
7:18  -  mph 1002.9mb 38f 29f
7:12  -  mph 1002.8mb 38f 29f
7:06  -  mph 1002.8mb 38f 29f
7:00  -  mph 1002.9mb 38f 29f
6:54  -  mph 1003mb 38f 29f
6:48 6 7 mph 1003mb 38f 29f
6:42 6 8 mph 1002.8mb 38f 29f
6:36 7 9 mph 1002.6mb 38f 29f
6:30 6 7 mph 1002.8mb 38f 29f
6:24 6 7 mph 1002.8mb 38f 29f
6:18 6 9 mph 1002.8mb 38f 30f
6:12 6 9 mph 1002.8mb 38f 29f
6:06 6 7 mph 1002.9mb 38f 29f
6:00 6 7 mph 1002.9mb 38f 30f
5:54 5 7 mph 1003mb 38f 30f
5:48 6 7 mph 1002.9mb 38f 30f
5:42 5 7 mph 1002.9mb 38f 30f
5:36 6 7 mph 1002.9mb 38f 30f
5:30 6 7 mph 1002.9mb 38f 30f
5:24 6 7 mph 1002.8mb 38f 30f
5:18 6 7 mph 1002.7mb 38f 31f
5:12 6 8 mph 1002.7mb 38f 31f
5:06 6 8 mph 1002.6mb 38f 31f
5:00 7 8 mph 1002.5mb 38f 31f
4:54 6 10 mph 1002.5mb 38f 31f
4:48 8 9 mph 1002.4mb 38f 31f
4:42 8 9 mph 1002.2mb 38f 31f
4:36 8 11 mph 1002.2mb 38f 31f
4:30 9 11 mph 1002.1mb 38f 31f
4:24 9 11 mph 1002mb 38f 31f
4:18 9 11 mph 1002mb 38f 31f
4:12 7 9 mph 1002mb 38f 31f
4:06 8 10 mph 1002mb 38f 31f
4:00 7 9 mph 1001.9mb 38f 31f
3:54 7 9 mph 1001.9mb 38f 31f
3:48 8 9 mph 1001.9mb 38f 31f
3:42 8 10 mph 1001.8mb 38f 31f
3:36 8 11 mph 1001.7mb 38f 31f
3:30 10 11 mph 1001.6mb 38f 31f
3:24 10 13 mph 1001.6mb 38f 30f
3:18 9 11 mph 1001.6mb 38f 31f
3:12 9 13 mph 1001.6mb 38f 30f
3:06 11 13 mph 1001.5mb 38f 30f
3:00 8 10 mph 1001.6mb 38f 30f
2:54 7 10 mph 1001.6mb 38f 30f
2:48 8 13 mph 1001.5mb 38f 30f
2:42 9 13 mph 1001.5mb 38f 30f
2:36 9 11 mph 1001.6mb 38f 30f
2:30 10 13 mph 1001.7mb 38f 30f
2:24 11 13 mph 1001.6mb 38f 30f
2:18 10 11 mph 1001.6mb 38f 30f
2:12 9 13 mph 1001.7mb 38f 30f
2:06 9 13 mph 1001.8mb 38f 30f
2:00 8 11 mph 1001.8mb 38f 30f
1:54 8 10 mph 1001.9mb 38f 30f
1:48 7 9 mph 1001.8mb 38f 30f
1:42 8 10 mph 1001.7mb 38f 30f
1:36 9 11 mph 1001.9mb 38f 30f
1:30 8 11 mph 1002mb 38f 29f
1:24 9 11 mph 1002mb 38f 29f
1:18 9 11 mph 1001.9mb 38f 29f
1:12 10 13 mph 1002mb 38f 29f
1:06 10 14 mph 1001.9mb 38f 29f
1:00 10 13 mph 1002mb 38f 29f
12:54 10 14 mph 1002.2mb 38f 29f
12:48 11 14 mph 1002.2mb 38f 29f
12:42 11 13 mph 1002.4mb 38f 29f
12:36 11 14 mph 1002.3mb 38f 28f
12:30 13 15 mph 1002.3mb 38f 28f
12:24 10 14 mph 1002.6mb 38f 28f
12:18 11 13 mph 1002.7mb 38f 28f
12:12 11 13 mph 1002.9mb 38f 28f
12:06 11 14 mph 1002.9mb 38f 28f
12:00 9 14 mph 1003.2mb 38f 28f
11:54 11 14 mph 1003.3mb 38f 28f
11:48 10 14 mph 1003.3mb 38f 28f
11:42 11 14 mph 1003.4mb 38f 27f
11:36 13 15 mph 1003.5mb 38f 27f
11:30 11 15 mph 1003.5mb 38f 27f
11:24 13 15 mph 1003.8mb 38f 26f
11:18 13 16 mph 1003.8mb 38f 26f
11:12 13 16 mph 1003.7mb 38f 26f
11:06 14 17 mph 1003.6mb 38f 26f
11:00 14 15 mph 1003.8mb 38f 26f
10:54 13 15 mph 1004.1mb 38f 26f
10:48 14 16 mph 1004.2mb 38f 25f
10:42 11 15 mph 1004.3mb 38f 25f
10:36 13 15 mph 1004.3mb 38f 25f
10:30 13 16 mph 1004.5mb 38f 25f
10:24 11 15 mph 1004.7mb 38f 24f
10:18 10 13 mph 1005mb 38f 24f
10:12 10 11 mph 1005.2mb 38f 24f
10:06 11 13 mph 1005.3mb 38f 24f
10:00 9 13 mph 1005.3mb 38f 24f
9:54 10 11 mph 1005.5mb 38f 24f
9:48 9 11 mph 1005.7mb 38f 24f
9:42 9 13 mph 1005.7mb 38f 24f
9:36 9 13 mph 1005.7mb 38f 24f
9:30 10 14 mph 1005.8mb 38f 24f
9:24 11 14 mph 1005.6mb 38f 23f
9:18 11 14 mph 1005.4mb 38f 23f
9:12 10 14 mph 1005.4mb 38f 23f
9:06 10 14 mph 1005.6mb 38f 23f
9:00 8 13 mph 1005.9mb 38f 23f
8:54 10 13 mph 1005.8mb 38f 23f
8:48 10 13 mph 1005.8mb 38f 23f
8:42 9 13 mph 1005.9mb 38f 23f
8:36 11 14 mph 1005.7mb 38f 23f
8:30 11 13 mph 1006mb 38f 23f
8:24 9 13 mph 1006.1mb 38f 23f
8:18 10 13 mph 1006.2mb 38f 23f
8:12 9 11 mph 1006.2mb 38f 23f
8:06 9 11 mph 1006.4mb 38f 23f
8:00 8 10 mph 1006.6mb 38f 23f
7:54 8 9 mph 1006.6mb 38f 23f
7:48 7 8 mph 1006.7mb 38f 23f
7:42 6 7 mph 1006.8mb 38f 22f
7:36 7 9 mph 1006.7mb 38f 23f
7:30 7 9 mph 1006.7mb 38f 23f
7:24 7 9 mph 1006.7mb 38f 22f
7:18 6 8 mph 1006.8mb 38f 22f
7:12 7 9 mph 1006.8mb 38f 23f
7:06 6 9 mph 1006.8mb 38f 23f
7:00 7 8 mph 1006.8mb 38f 22f
6:54 6 9 mph 1006.8mb 38f 22f
6:48 7 9 mph 1006.5mb 38f 22f
6:42 9 11 mph 1006.2mb 38f 22f
6:36 6 8 mph 1006.1mb 38f 22f
6:30 6 7 mph 1006mb 38f 22f
6:24 6 10 mph 1006mb 38f 22f
6:18 10 15 mph 1005.7mb 38f 22f
6:12 14 20 mph 1004.9mb 38f 22f
6:06 15 21 mph 1004.9mb 38f 23f
6:00 20 22 mph 1004.7mb 38f 23f
5:54 17 22 mph 1004.2mb 38f 23f
5:48 20 24 mph 1004.1mb 38f 22f
5:42 18 23 mph 1004.3mb 38f 22f
5:36 18 22 mph 1004.8mb 38f 22f
5:30 15 18 mph 1005.2mb 38f 23f
5:24 15 17 mph 1005.4mb 38f 22f
5:18 13 15 mph 1005.9mb 38f 22f
5:12 14 16 mph 1006.2mb 38f 22f
5:06 13 16 mph 1006.4mb 38f 22f
5:00 10 14 mph 1006.6mb 38f 23f
4:54 10 14 mph 1006.6mb 38f 22f
4:48  -  mph 1006.9mb 38f 23f
4:42  -  mph 1007mb 38f 23f
4:36  -  mph 1007mb 38f 22f
4:30 9 13 mph 1006.9mb 38f 23f
4:24 8 11 mph 1007mb 38f 23f
4:18 10 15 mph 1006.8mb 38f 23f
4:12 11 15 mph 1006.6mb 38f 23f
4:06 9 14 mph 1006.6mb 38f 23f
4:00 11 14 mph 1006.4mb 38f 23f
3:54 11 14 mph 1006.4mb 38f 23f
3:48 11 16 mph 1006.4mb 38f 22f
3:42 14 17 mph 1006.3mb 38f 22f
3:36 14 16 mph 1006.4mb 38f 22f
3:30 13 16 mph 1006.6mb 38f 22f
3:24 11 16 mph 1006.6mb 38f 23f
3:18 13 16 mph 1006.7mb 38f 22f
3:12 14 16 mph 1006.7mb 38f 22f